Regional Weather Roundup
Issued by NWS

Home | Current Version | Previous Version | Graphics & Text | Print | Product List | Glossary On
Versions: 1 2 3 4 5 6 7 8 9 10 11 12 13 14 15 16 17 18 19 20 21 22 23 24 25 26 27 28 29 30 31 32 33 34 35 36 37 38 39 40 41 42 43 44 45 46 47 48 49 50
000
ASUS43 KMPX 292010
RWRMN
WEATHER ROUNDUP FOR MINNESOTA
NATIONAL WEATHER SERVICE TWIN CITIES/CHANHASSEN MN
300 PM CDT SUN MAY 29 2016


NOTE: "FAIR" INDICATES FEW OR NO CLOUDS BELOW 12,000 FEET WITH NO
SIGNIFICANT WEATHER AND/OR OBSTRUCTIONS TO VISIBILITY. N/A MEANS
CURRENT SKY AND/OR WEATHER CONDITIONS ARE NOT AVAILABLE.

MNZ060>063-068>070-292100-
   Twin Cities Metro

CITY           SKY/WX    TMP DP  RH WIND       PRES   REMARKS
TWIN CITIES    PTSUNNY   76  57  51 NW14      29.96S
ST PAUL        MOSUNNY   75  56  51 W16       29.95F
CRYSTAL        SUNNY     76  55  48 W16       29.94F
BLAINE         PTSUNNY   75  57  53 W13G20    29.94F
EDEN PRAIRIE   SUNNY     76  61  59 W12       29.95F
SOUTH ST PAUL  PTSUNNY   74  55  51 W12G18    29.95S
LAKE ELMO      PTSUNNY   73  55  53 NW13G18   29.96F
$$
MNZ001>005-007-008-013>017-022>024-027-028-292100-
   Northwest Minnesota

CITY           SKY/WX    TMP DP  RH WIND       PRES   REMARKS
BEMIDJI        MOSUNNY   67  53  62 W14G20    29.94S
HALLOCK        MOSUNNY   70  55  60 NW12      29.91F
ROSEAU         PTSUNNY   64  57  77 W8        29.90S
WARROAD        PTSUNNY   64  57  77 W8G16     29.89S
THIEF RVR FALL MOSUNNY   66  55  68 W16       29.95S
CROOKSTON      MOSUNNY   70  57  64 NW9       29.94F
FOSSTON        MOSUNNY   66  55  68 W9        29.95F
DETROIT LAKES  SUNNY     68  54  60 W9        29.98S
MOORHEAD       SUNNY     73  52  46 NW16      29.95F
PARK RAPIDS    MOSUNNY   72  54  53 W14       29.95S
MAHNOMEN       CLOUDY    67  57  71 W9        29.96S
$$
MNZ006-009>011-018-025>026-292100-
   North Central Minnesota

CITY           SKY/WX    TMP DP  RH WIND       PRES   REMARKS
BAUDETTE       PTSUNNY   65  56  72 W10       29.89F
FLAG ISLAND    PTSUNNY   61  54  77 NW9G17    29.87S
INTL FALLS     CLOUDY    61  54  77 W15       29.88R
WASKISH        CLOUDY    63  55  77 W12       29.92S
BIG FORK       CLOUDY    63  55  77 W13G18    29.92R
LONGVILLE      CLOUDY    66  55  68 NW9       29.95R
GRAND RAPIDS   CLOUDY    66  55  67 SW12      29.93S
CRANE LAKE     RAIN      59  55  88 W12G18    29.88R
ORR            CLOUDY    63  54  72 W10G20    29.86R
COOK           CLOUDY    63  55  77 W14       29.89R
WALKER         FAIR      66  54  65 NW9G18    29.94F
$$
MNZ012-019>021-037-292100-
   Northeast Minnesota

CITY           SKY/WX    TMP DP  RH WIND       PRES   REMARKS
DULUTH         PTSUNNY   66  54  65 NW16G25   29.88S
ELY            LGT RAIN  59  55  88 W10G20    29.86R
HIBBING        PTSUNNY   65  55  70 NW14      29.89R
EVELETH        CLOUDY    63  54  72 NW14G21   29.89S
DULUTH HARBOR  CLOUDY    64  59  82 W20       29.88R
TWO HARBORS      N/A     70  59  68 NW12G20   29.84R
SILVER BAY     CLOUDY    66  55  68 W7        29.82R
GRAND MARAIS     N/A     44  43  96 SW13      29.77S
G MARAIS ARPRT CLOUDY    63  57  82 W9        29.80S
$$
MNZ029>031-032-039>041-046>048-054>057-064-292100-
   West Central Minnesota

CITY           SKY/WX    TMP DP  RH WIND       PRES   REMARKS
FERGUS FALLS   SUNNY     75  52  43 NW16G22   29.92F
WHEATON        SUNNY     79  48  34 NW18G28   29.99R
MORRIS         SUNNY     75  57  53 NW13      29.96S
ALEXANDRIA     CLOUDY    66  58  75 W8        29.99S
ELBOW LAKE     FAIR      71  59  66 NW6       29.98F
WADENA         MOSUNNY   72  55  56 NW12      29.96S
GLENWOOD       SUNNY     70  55  60 NW17G23   29.98S
APPLETON       MOSUNNY   81  46  30 NW15G23   29.96F
ORTONVILLE     MOSUNNY   79  46  31 NW12G21   29.97F
MADISON        SUNNY     79  46  31 W17G24    29.98F
WILLMAR        FAIR      75  57  53 NW7       29.98F
$$
MNZ033>034-036-042>043-049>051-058-059-292100-
   Central Minnesota

CITY           SKY/WX    TMP DP  RH WIND       PRES   REMARKS
ST CLOUD       MOSUNNY   75  56  51 W14G21    29.95F
SAUK CENTRE    FAIR      71  55  56 W10G17    29.97S
PAYNESVILLE    MOSUNNY   76  53  44 W14G23    29.97S
AITKIN         PTSUNNY   75  52  43 W6        29.91F
PINE RIVER     MOSUNNY   68  55  64 NW12G23   29.98S
BRAINERD       MOSUNNY   72  54  53 W15G22    29.94F
STAPLES        MOSUNNY   72  54  53 NW14      29.95S
LONG PRAIRIE   PTSUNNY   72  55  56 W13       29.97S
LITTLE FALLS   MOSUNNY   72  52  49 W8G16     29.95S
LITCHFIELD     SUNNY     75  57  53 W9G18     29.98S
BUFFALO        SUNNY     74  55  50 W13G18    29.97F
MAPLE LAKE     MOSUNNY   74  60  61 W7G17     29.97S
HUTCHINSON     MOSUNNY   76  61  60 W13       29.99S
$$
MNZ037-044-045-052-053-292100-
   East Central Minnesota

CITY           SKY/WX    TMP DP  RH WIND       PRES   REMARKS
PRINCETON      SUNNY     75  55  50 W14       29.95S
MORA           SUNNY     70  54  56 W15       29.95S
CAMBRIDGE      PTSUNNY   77  57  50 W13G21    29.93S
RUSH CITY      PTSUNNY   71  58  62 NW6       29.94S
MOOSE LAKE     CLOUDY    70  54  56 W7G18     29.89F
HINCKLEY       FAIR      72  55  56 W15G28    29.93S
CLOQUET        CLOUDY    68  54  60 W14G21    29.90R
MCGREGOR       MOSUNNY   70  54  56 W12G18    29.92S
$$
MNZ071>073-080-081-089-090-097-098-292100-
   Southwest Minnesota

CITY           SKY/WX    TMP DP  RH WIND       PRES   REMARKS
MONTEVIDEO     MOSUNNY   81  54  39 NW10      29.98F
GRANITE FALLS  PTSUNNY   79  55  44 W13G18    30.00S
CANBY          MOSUNNY   78  50  37 W15       30.01S
MARSHALL       MOSUNNY   76  52  43 NW17G23   30.00F
REDWOOD FALLS  MOSUNNY   78  56  46 W9        29.97F
OLIVIA         MOSUNNY   70  52  52 W7        29.97F
PIPESTONE      MOSUNNY   75  37  25 NW16G23   30.04F
WINDOM         SUNNY     77  54  44 CALM      30.02S
WORTHINGTON    MOSUNNY   74  54  49 W16       30.05
JACKSON        PTSUNNY   75  52  43 W13       30.04R
TRACY          MOSUNNY   77  56  47 W10G18    30.02S
SLAYTON        SUNNY     75  48  38 W15       30.04S
$$
MNZ065>067-074>077-082>085-091>093-292100-
   South Central Minnesota

CITY           SKY/WX    TMP DP  RH WIND       PRES   REMARKS
MANKATO        MOSUNNY   75  57  53 W15       29.99S
NEW ULM        SUNNY     75  55  50 W16       29.98F
ST JAMES       MOSUNNY   72  54  53 W14       30.01S
FAIRMONT       CLOUDY    77  54  44 W14       30.01S
GLENCOE        PTSUNNY   75  62  63 W10G17    29.97F
FARIBAULT      PTSUNNY   75  59  57 W15G24    29.98S
OWATONNA       SUNNY     75  59  57 W13G18    29.98F
WASECA         MOSUNNY   77  61  57 W14       30.00F
ALBERT LEA     PTSUNNY   75  57  53 W7        30.00S
$$
MNZ078>079-086>088-094>096-292100-
   Southeast Minnesota

CITY           SKY/WX    TMP DP  RH WIND       PRES   REMARKS
ROCHESTER      SUNNY     75  62  64 W16       29.99F
RED WING       MOSUNNY   79  55  44 W12G21    29.94F
STANTON        PTSUNNY   75  61  63 SW13      29.96S
DODGE CENTER   SUNNY     75  57  53 W15       29.99F
WINONA         PTSUNNY   77  55  47 NW14      29.96S
AUSTIN           N/A    N/A N/A N/A W14       30.00S
PRESTON        MOSUNNY   71  61  72 NW12      30.00F
$$
ABBREVIATIONS USED IN REMARKS
   TC - TEMPERATURES IN CELSIUS
  WCI - WIND CHILL INDEX
   HX - HEAT INDEX
  VSB - VISIBILITY
$$




USA.gov is the U.S. government's official web portal to all federal, state and local government web resources and services.